Location: Gulgong NSW 2852, Australia
(32.2976°S, 149.5548°E)
Time: 12:13:06
(UTC+11:00)

Envisat - Pass Details

Date: 08 December 2021
Orbit: 764 x 766 km, 98.2° (Epoch: 22 January)

Event Time Altitude Azimuth Distance (km) Brightness Sun altitude
Rises 04:24:25 0° 42° (NE) 3,221 6.3 -15.4°
Reaches altitude 10° 04:27:01 10° 54° (NE) 2,303 5.7 -15.0°
Maximum altitude 04:31:13 27° 110° (ESE) 1,467 5.3 -14.3°
Drops below altitude 10° 04:35:26 10° 166° (SSE) 2,326 6.3 -13.6°
Sets 04:38:04 0° 177° (S) 3,260 6.9 -13.2°
